DELTA 1 DEB *, 8791

Orbit data source: Space-Track

DELTA 1 DEB *, 8791 is space debris in SSO originally from a launch on Sun, 02 Oct 1966 UTC launched from the Air Force Western Test Range (AFWTR). Debris objects in space refer to the collection of defunct objects orbiting the Earth. Examples of debris include non-operational satellites, rocket bodies, and fragments generated from explosions, collisions, or faulty payload assembly.

Loading next visibility...
Identifier
8791, 1966-087F
Orbit
SSO
Country
Flag of USUS
Related business
Manufacturer
Unknown
Mission
Spacecraft
Bus & Motor
Unknown
Mass
Unknown
Launch date (UTC)
1966-10-02 (59 years ago)
Launch vehicle
Unknown
Launch site
Air Force Western Test Range (AFWTR)
Object type
Payload
Rocket body
Debris
Shape & HBR
Unknown shape, 0.1 m
Radar Cross Section
Small (<0.1 m²)

Expand to show TLE details & history
Last TLE update: 2 days ago

TLE from 2 days ago
0 DELTA 1 DEB *
1 08791U 66087F   25299.86994635  .00000244  00000-0  15304-2 0  9994
2 08791 101.6241 275.4725 0141581 303.2691  84.0569 12.63821324714936
Epoch: 2025-10-26T20:52Z
TLE epoch observation values (Epoch: 2025-10-26T20:52:43.364Z)
Latitude
28.33746°
Longitude
-79.52578°
Altitude
1,400.566 km
Speed
7.167 km/s
True Right ascension
17h 56m 32s
True Declination
28° 12' 21"
Sunlit
Object was in daylight at epoch
Visualization orbit readout
Latitude
Unknown
Longitude
Unknown
Altitude
Unknown
Speed
Unknown
Apparent Right ascension
Unknown
Apparent Declination
Unknown
Sunlit
N/A
Visualization observer readout
Local Sidereal Time
17:39:14
Azimuth
Unknown
Elevation
Unknown
Doppler factor
Unknown
Orbital elements
Apogee altitude
1,514.923 km
Perigee altitude
1,294.541 km
Semi-major axis
7,782.869 km
Eccentricity
0.01416
Inclination
101.6241°
RAAN
275.4725°
Arg. of periapsis
303.2691°
True anomaly
85.67333°
Mean anomaly
84.0569°
Eccentric anomaly
84.86484°
Mean motion
3.16107 °/min
Orbital period
113.89 mins
BSTAR
0.0015304
Loading maneuver chart data...
Computing Atmospheric mass density...
Loading historical data...
Loading historical data...
Loading historical data...
Loading historical data...
Loading historical data...
Loading historical data...
Loading historical data...
Other satellites on launch #87 in the year 1966 (1966-10-02 UTC)

Documentation

Showing up to 5 results
|